Radiation Dose at Monitoring Post of Fukushima Daini Nuclear Power Station
Date,Time,MP-1(microSv/h),MP-2(microSv/h),MP-3(microSv/h),MP-4(microSv/h),MP-5(microSv/h),MP-6(microSv/h),MP-7(microSv/h),Wind Direction,Wind Velocity(m/s),Rain
2019/12/10,00:00,0.185,0.164,0.279,0.260,0.256,0.141,0.088,south-southwest,3.0,No
2019/12/10,00:10,0.184,0.164,0.280,0.260,0.256,0.141,0.087,south,2.3,No
2019/12/10,00:20,0.184,0.166,0.280,0.260,0.255,0.141,0.087,south,2.3,No
2019/12/10,00:30,0.183,0.165,0.280,0.261,0.255,0.142,0.087,south,2.1,No
2019/12/10,00:40,0.184,0.165,0.279,0.260,0.255,0.141,0.087,south,2.1,No
2019/12/10,00:50,0.183,0.164,0.280,0.260,0.255,0.140,0.087,south,1.4,No
2019/12/10,01:00,0.183,0.165,0.279,0.262,0.254,0.141,0.087,south,1.9,No
2019/12/10,01:10,0.183,0.165,0.280,0.261,0.255,0.141,0.086,south,2.1,No
2019/12/10,01:20,0.183,0.164,0.279,0.260,0.255,0.141,0.087,south,1.9,No
2019/12/10,01:30,0.183,0.165,0.279,0.261,0.254,0.141,0.086,south,1.7,No
2019/12/10,01:40,0.182,0.164,0.279,0.261,0.254,0.141,0.086,south,1.4,No
2019/12/10,01:50,0.182,0.164,0.280,0.260,0.257,0.141,0.087,south-southwest,1.9,No
2019/12/10,02:00,0.183,0.165,0.280,0.260,0.256,0.141,0.087,south-southwest,2.2,No
2019/12/10,02:10,0.182,0.165,0.279,0.260,0.254,0.141,0.087,south-southwest,1.9,No
2019/12/10,02:20,0.184,0.165,0.281,0.261,0.253,0.140,0.087,south-southwest,2.1,No
2019/12/10,02:30,0.183,0.165,0.279,0.261,0.254,0.140,0.086,south-southwest,2.3,No
2019/12/10,02:40,0.183,0.164,0.280,0.260,0.254,0.140,0.087,south-southwest,2.4,No
2019/12/10,02:50,0.183,0.165,0.279,0.260,0.254,0.140,0.087,south-southwest,2.5,No
2019/12/10,03:00,0.184,0.165,0.278,0.261,0.254,0.141,0.087,south-southwest,2.6,No
2019/12/10,03:10,0.184,0.165,0.279,0.260,0.254,0.141,0.087,south-southwest,2.9,No
2019/12/10,03:20,0.183,0.164,0.280,0.260,0.254,0.141,0.087,south-southwest,2.5,No
2019/12/10,03:30,0.183,0.165,0.279,0.260,0.254,0.142,0.087,south-southwest,2.2,No
2019/12/10,03:40,0.184,0.165,0.279,0.261,0.255,0.141,0.087,southwest,2.9,No
2019/12/10,03:50,0.183,0.165,0.279,0.260,0.255,0.141,0.087,southwest,2.8,No
2019/12/10,04:00,0.183,0.164,0.281,0.262,0.253,0.141,0.087,southwest,2.8,No
2019/12/10,04:10,0.183,0.164,0.278,0.259,0.255,0.140,0.087,southwest,2.6,No
2019/12/10,04:20,0.183,0.164,0.280,0.261,0.254,0.142,0.087,south,1.7,Yes
2019/12/10,04:30,0.182,0.164,0.279,0.260,0.254,0.141,0.087,south-southwest,2.5,Yes
2019/12/10,04:40,0.183,0.165,0.280,0.261,0.254,0.140,0.087,south-southwest,3.0,Yes
2019/12/10,04:50,0.183,0.164,0.279,0.259,0.254,0.141,0.087,southwest,3.0,Yes
2019/12/10,05:00,0.183,0.164,0.278,0.259,0.256,0.141,0.086,south-southwest,2.9,No
2019/12/10,05:10,0.183,0.165,0.280,0.261,0.256,0.141,0.087,south-southwest,3.0,No
2019/12/10,05:20,0.183,0.164,0.279,0.260,0.255,0.141,0.087,south-southwest,2.9,No
2019/12/10,05:30,0.184,0.166,0.280,0.260,0.254,0.141,0.087,south,2.8,No
2019/12/10,05:40,0.183,0.163,0.280,0.260,0.256,0.141,0.087,south,2.9,No
2019/12/10,05:50,0.183,0.165,0.280,0.261,0.255,0.141,0.088,south-southeast,2.4,No
2019/12/10,06:00,0.184,0.164,0.278,0.260,0.255,0.142,0.087,south,2.2,No
2019/12/10,06:10,0.183,0.165,0.279,0.260,0.255,0.141,0.087,south,2.2,No
2019/12/10,06:20,0.183,0.165,0.279,0.261,0.254,0.141,0.087,south-southeast,2.0,No
2019/12/10,06:30,0.184,0.165,0.280,0.259,0.255,0.141,0.087,south,1.9,No
2019/12/10,06:40,0.182,0.166,0.279,0.260,0.255,0.140,0.087,south,1.6,No
2019/12/10,06:50,0.183,0.165,0.280,0.260,0.256,0.141,0.087,south,1.6,No
2019/12/10,07:00,0.183,0.164,0.281,0.260,0.255,0.141,0.086,south-southeast,1.9,No
2019/12/10,07:10,0.184,0.164,0.280,0.262,0.255,0.141,0.087,-,CALM,No
2019/12/10,07:20,0.184,0.166,0.280,0.260,0.256,0.142,0.088,west-southwest,1.0,No
2019/12/10,07:30,0.183,0.165,0.280,0.261,0.255,0.142,0.087,west-southwest,1.0,No
2019/12/10,07:40,0.184,0.164,0.280,0.262,0.255,0.141,0.087,west-southwest,0.8,No
2019/12/10,07:50,0.183,0.166,0.279,0.261,0.256,0.142,0.087,-,CALM,No
2019/12/10,08:00,0.183,0.166,0.280,0.260,0.256,0.143,0.088,-,CALM,No
2019/12/10,08:10,0.184,0.164,0.280,0.261,0.255,0.141,0.087,-,CALM,No
2019/12/10,08:20,0.182,0.164,0.278,0.261,0.257,0.141,0.087,south-southwest,1.1,No
2019/12/10,08:30,0.183,0.164,0.279,0.260,0.256,0.141,0.087,south,1.0,No
2019/12/10,08:40,0.183,0.164,0.280,0.260,0.255,0.141,0.087,south,0.8,No
2019/12/10,08:50,0.185,0.165,0.279,0.261,0.254,0.141,0.087,south,1.0,No
2019/12/10,09:00,0.183,0.164,0.278,0.258,0.253,0.141,0.087,south,0.6,No
2019/12/10,09:10,0.183,0.164,0.280,0.260,0.256,0.140,0.087,-,CALM,No
2019/12/10,09:20,0.183,0.164,0.278,0.261,0.254,0.140,0.087,south-southeast,1.3,No
2019/12/10,09:30,0.183,0.163,0.280,0.258,0.254,0.140,0.086,south,0.9,No
2019/12/10,09:40,0.183,0.164,0.278,0.261,0.255,0.140,0.087,southeast,0.7,No
2019/12/10,09:50,0.182,0.163,0.278,0.259,0.255,0.141,0.086,southeast,1.1,No
2019/12/10,10:00,0.183,0.165,0.279,0.260,0.254,0.140,0.088,southeast,0.8,No
2019/12/10,10:10,0.182,0.164,0.279,0.259,0.254,0.140,0.086,southeast,0.9,No
2019/12/10,10:20,0.182,0.165,0.278,0.260,0.254,0.140,0.087,south-southwest,0.7,No
2019/12/10,10:30,0.181,0.164,0.279,0.259,0.255,0.140,0.087,south-southwest,0.6,No
2019/12/10,10:40,0.182,0.163,0.277,0.260,0.255,0.140,0.087,-,CALM,No
2019/12/10,10:50,0.182,0.165,0.279,0.261,0.255,0.140,0.086,east-southeast,0.7,No
2019/12/10,11:00,0.182,0.163,0.278,0.259,0.255,0.140,0.087,-,CALM,No
2019/12/10,11:10,0.183,0.165,0.277,0.260,0.254,0.140,0.086,-,CALM,Yes
2019/12/10,11:20,0.182,0.165,0.279,0.259,0.256,0.141,0.085,-,CALM,No
2019/12/10,11:30,0.183,0.165,0.278,0.259,0.254,0.140,0.085,-,CALM,No
2019/12/10,11:40,0.181,0.165,0.279,0.259,0.256,0.141,0.086,east-northeast,1.1,Yes
2019/12/10,11:50,0.184,0.165,0.278,0.261,0.253,0.140,0.086,east,1.3,No
2019/12/10,12:00,0.182,0.166,0.279,0.260,0.256,0.141,0.086,east,1.6,No
2019/12/10,12:10,0.184,0.164,0.279,0.261,0.254,0.141,0.087,east-southeast,1.8,No
2019/12/10,12:20,0.184,0.165,0.279,0.260,0.257,0.141,0.087,east-southeast,1.6,Yes
2019/12/10,12:30,0.182,0.165,0.279,0.260,0.255,0.142,0.088,east-southeast,1.5,No
2019/12/10,12:40,0.183,0.165,0.278,0.261,0.254,0.141,0.087,east-northeast,0.9,No
2019/12/10,12:50,0.182,0.165,0.280,0.259,0.255,0.141,0.086,-,CALM,No
2019/12/10,13:00,0.183,0.164,0.278,0.260,0.254,0.140,0.087,south-southeast,1.3,No
2019/12/10,13:10,0.182,0.165,0.278,0.259,0.255,0.141,0.086,east-southeast,1.2,No
2019/12/10,13:20,0.183,0.164,0.279,0.261,0.255,0.140,0.086,east,1.3,No
2019/12/10,13:30,0.182,0.165,0.278,0.259,0.256,0.139,0.086,east-southeast,1.5,No
2019/12/10,13:40,0.183,0.165,0.279,0.261,0.256,0.140,0.087,southeast,1.1,No
2019/12/10,13:50,0.181,0.166,0.277,0.259,0.255,0.141,0.086,east-southeast,1.0,No
2019/12/10,14:00,0.183,0.163,0.280,0.258,0.254,0.141,0.087,southeast,1.1,No
2019/12/10,14:10,0.182,0.164,0.278,0.259,0.257,0.140,0.087,southeast,1.2,No
2019/12/10,14:20,0.183,0.165,0.278,0.262,0.254,0.141,0.086,southeast,1.3,No
2019/12/10,14:30,0.184,0.163,0.279,0.260,0.254,0.141,0.086,southeast,0.9,No
2019/12/10,14:40,0.183,0.165,0.279,0.261,0.254,0.141,0.087,-,CALM,No
2019/12/10,14:50,0.183,0.164,0.280,0.260,0.256,0.141,0.087,east,0.6,No
2019/12/10,15:00,0.182,0.165,0.278,0.261,0.255,0.141,0.086,east,0.7,No
2019/12/10,15:10,0.183,0.164,0.279,0.260,0.257,0.141,0.087,east-northeast,0.7,No
2019/12/10,15:20,0.182,0.163,0.280,0.259,0.255,0.141,0.087,-,CALM,No
2019/12/10,15:30,0.182,0.166,0.278,0.260,0.256,0.140,0.086,-,CALM,No
2019/12/10,15:40,0.183,0.165,0.281,0.260,0.255,0.141,0.086,-,CALM,No
2019/12/10,15:50,0.183,0.165,0.279,0.262,0.255,0.141,0.087,-,CALM,No
2019/12/10,16:00,0.183,0.164,0.279,0.261,0.257,0.141,0.087,-,CALM,No
2019/12/10,16:10,0.183,0.165,0.279,0.259,0.255,0.141,0.087,south-southeast,0.6,No
2019/12/10,16:20,0.182,0.164,0.278,0.261,0.255,0.140,0.087,southeast,0.7,No
2019/12/10,16:30,0.183,0.165,0.279,0.260,0.255,0.141,0.087,-,CALM,No
2019/12/10,16:40,0.183,0.164,0.278,0.261,0.255,0.141,0.087,east-southeast,0.6,No
2019/12/10,16:50,0.183,0.163,0.278,0.260,0.256,0.141,0.086,-,CALM,No
2019/12/10,17:00,0.184,0.165,0.279,0.259,0.254,0.141,0.086,-,CALM,No
2019/12/10,17:10,0.183,0.164,0.279,0.262,0.256,0.142,0.087,-,CALM,No
2019/12/10,17:20,0.184,0.165,0.279,0.260,0.255,0.140,0.087,-,CALM,No
2019/12/10,17:30,0.183,0.165,0.278,0.261,0.255,0.141,0.087,-,CALM,No
2019/12/10,17:40,0.182,0.164,0.278,0.261,0.255,0.142,0.086,-,CALM,No
2019/12/10,17:50,0.183,0.165,0.279,0.260,0.255,0.142,0.087,-,CALM,No
2019/12/10,18:00,0.183,0.164,0.280,0.259,0.256,0.142,0.086,-,CALM,No
2019/12/10,18:10,0.183,0.165,0.280,0.261,0.255,0.141,0.087,-,CALM,No
2019/12/10,18:20,0.183,0.166,0.280,0.260,0.255,0.141,0.087,-,CALM,No
2019/12/10,18:30,0.183,0.165,0.279,0.260,0.257,0.141,0.087,-,CALM,No
2019/12/10,18:40,0.183,0.165,0.280,0.261,0.256,0.141,0.086,-,CALM,No
2019/12/10,18:50,0.184,0.166,0.279,0.260,0.255,0.140,0.087,-,CALM,No
2019/12/10,19:00,0.182,0.164,0.280,0.259,0.255,0.141,0.087,-,CALM,No
2019/12/10,19:10,0.182,0.164,0.280,0.260,0.255,0.141,0.087,-,CALM,No
2019/12/10,19:20,0.183,0.165,0.279,0.260,0.254,0.141,0.087,-,CALM,No
2019/12/10,19:30,0.183,0.164,0.280,0.260,0.255,0.141,0.087,-,CALM,No
2019/12/10,19:40,0.182,0.165,0.279,0.260,0.255,0.141,0.087,-,CALM,No
2019/12/10,19:50,0.183,0.166,0.280,0.260,0.256,0.140,0.087,west-northwest,0.8,No
2019/12/10,20:00,0.183,0.165,0.279,0.260,0.255,0.141,0.087,west,1.2,No
2019/12/10,20:10,0.183,0.165,0.279,0.262,0.255,0.141,0.087,-,CALM,No
2019/12/10,20:20,0.184,0.165,0.279,0.261,0.256,0.142,0.087,-,CALM,No
2019/12/10,20:30,0.183,0.164,0.280,0.260,0.254,0.141,0.087,-,CALM,No
2019/12/10,20:40,0.184,0.165,0.279,0.262,0.256,0.141,0.087,-,CALM,No
2019/12/10,20:50,0.183,0.164,0.281,0.260,0.256,0.142,0.086,-,CALM,No
2019/12/10,21:00,0.183,0.164,0.278,0.260,0.253,0.140,0.087,-,CALM,No
2019/12/10,21:10,0.183,0.165,0.279,0.262,0.256,0.141,0.087,-,CALM,No
2019/12/10,21:20,0.182,0.164,0.280,0.261,0.254,0.141,0.086,north,0.7,No
2019/12/10,21:30,0.183,0.164,0.278,0.261,0.255,0.142,0.087,north-northeast,0.6,No
2019/12/10,21:40,0.183,0.165,0.279,0.260,0.255,0.141,0.086,north-northeast,1.0,No
2019/12/10,21:50,0.183,0.164,0.280,0.260,0.254,0.141,0.087,-,CALM,No
2019/12/10,22:00,0.183,0.165,0.279,0.260,0.257,0.141,0.086,northeast,0.6,No
2019/12/10,22:10,0.183,0.165,0.279,0.260,0.255,0.141,0.087,-,CALM,No
2019/12/10,22:20,0.183,0.164,0.279,0.260,0.254,0.141,0.086,-,CALM,No
2019/12/10,22:30,0.184,0.165,0.279,0.261,0.256,0.142,0.087,-,CALM,No
2019/12/10,22:40,0.182,0.165,0.278,0.261,0.254,0.142,0.087,northeast,0.7,No
2019/12/10,22:50,0.182,0.164,0.280,0.261,0.255,0.140,0.088,north-northeast,1.0,No
2019/12/10,23:00,0.184,0.165,0.279,0.260,0.257,0.141,0.087,east-southeast,0.7,No
2019/12/10,23:10,0.183,0.163,0.279,0.261,0.255,0.141,0.087,-,CALM,No
2019/12/10,23:20,0.182,0.165,0.280,0.260,0.255,0.142,0.086,-,CALM,No
2019/12/10,23:30,0.183,0.164,0.280,0.260,0.256,0.140,0.087,north-northeast,0.7,No
2019/12/10,23:40,0.182,0.166,0.279,0.261,0.253,0.141,0.086,north,1.4,No
2019/12/10,23:50,0.183,0.164,0.279,0.260,0.256,0.140,0.087,northwest,1.3,No
